DECAYED

STARLINK-1567, 46038 (Decayed)

Orbit data source: Space-Track

STARLINK-1567, 46038 was a payload satellite owned by SpaceX/Seattle (US) in LEO that was launched on Fri, 07 Aug 2020 UTC via an FALCON 9 launch vehicle from the Air Force Eastern Test Range (AFETR). Payload-class satellites include a variety of spacecraft equipped with specific instruments for various scientific and technological missions. These include communications satellites like Starlink; space stations such as the ISS; scientific satellites like the Hubble; Earth observation satellites from companies like Planet Labs, Umbra, and HawkEye 360; GPS; miniature CubeSats for education and research; and military/defense satellites.

Not visible in the next 10 days
Identifier
46038, 2020-055M
Orbit
Decayed
Country
Flag of USUS
Related business
Manufacturer
SpaceX/Seattle
Mission
Decayed Commercial Communications
Bus & Motor
STARLINK, Unknown motor
Mass
260 kg wet, ~248 kg dry
Launch date (UTC)
2020-08-07 (6 years ago)
Launch vehicle
FALCON 9
Launch site
Air Force Eastern Test Range (AFETR)
Object type
Payload
Rocket body
Debris
Shape & HBR
Box + 1 Pan, 10.1 m
Radar Cross Section
13.562 m², Large (>1 m²)

Expand to show TLE details & history
Last TLE update: 1 month ago

TLE from 1 month ago
0 STARLINK-1567
1 46038U 20055M   26129.91495522  .10208208  12394-4  67510-3 0  9996
2 46038  53.0669 182.5473 0005674 278.8115  81.2290 16.40744495318521
Epoch: 2026-05-09T21:57Z
TLE epoch observation values (Epoch: 2026-05-09T21:57:32.131Z)
Latitude
0.00004°
Longitude
-14.56209°
Altitude
164.191 km
Speed
7.809 km/s
True Right ascension
12h 10m 11s
True Declination
0° 00' 00"
Sunlit
Object was in full shadow at epoch
Visualization orbit readout
Latitude
Unknown
Longitude
Unknown
Altitude
Unknown
Speed
Unknown
Apparent Right ascension
Unknown
Apparent Declination
Unknown
Sunlit
N/A
Visualization observer readout
Local Sidereal Time
07:01:57
Azimuth
Unknown
Elevation
Unknown
Doppler factor
Unknown
Orbital elements
Apogee altitude
167.819 km
Perigee altitude
160.395 km
Semi-major axis
6,542.244 km
Eccentricity
0.00057
Inclination
53.0669°
RAAN
182.5473°
Arg. of periapsis
278.8115°
True anomaly
81.29327°
Mean anomaly
81.229°
Eccentric anomaly
81.26113°
Mean motion
4.1016 °/min
Orbital period
87.77 mins
BSTAR
0.0006751
Loading maneuver chart data...
Computing Atmospheric mass density...
Loading historical data...
Loading historical data...
Loading historical data...
Loading historical data...
Loading historical data...
Loading historical data...
Loading historical data...

Documentation

Showing up to 5 results
|